Back to catalog

ARIANE 5 DEB

SYLDA

AliveHEO
NORAD 44803·DEBRIS·🇫🇷 France

Launched Nov 26, 2019 from Guiana Space Centre

Loading…

Next Passes (next 24 hours)

TLE

FreshSource: Space-Track

Epoch: Sep 14, 2026, 01:16 UTC

1 44803U 19080D   26257.05309006  .00164243  00000-0  40534-2 0  9990
2 44803   5.3243 131.9332 3633942 303.2990  26.9679  8.19796825111216

Track ARIANE 5 DEB in real time with AllMySat

Download on the App Store